loading
|

TITAN 3C TRANSTAGE DEB, 2789

Orbit data source: Space-Track

TITAN 3C TRANSTAGE DEB, 2789 is space debris in LEO originally from a launch on Fri, 15 Oct 1965 UTC launched from the Air Force Eastern Test Range (AFETR). Debris objects in space refer to the collection of defunct objects orbiting the Earth. Examples of debris include non-operational satellites, rocket bodies, and fragments generated from explosions, collisions, or faulty payload assembly.

Loading next visibility...
Next conjunction unknown
Loading greatness...
TITAN 3C TRANSTAGE DEB details
Identifier
2789, 1965-082KR
Orbit
LEO
Last TLE update11 hours ago
Origin
Flag of USUSAF SSD (US)
ManufacturerUnknown
MissionSpacecraft
Bus & MotorUnknown bus, Unknown motor
MassUnknown
Launch date (UTC)
1965-10-15 (59 years ago)
Launch vehicleUnknown
Launch site
Air Force Eastern Test Range (AFETR)
Object type
Payload
Rocket body
Debris
Shape & HBRUnknown
Radar Cross SectionSmall (<0.1 m²)

Expand to show TLE details & history

TLE from 11 hours ago
0 TITAN 3C TRANSTAGE DEB
1 02789U 65082KR  24285.56676287  .00123162  00000-0  11118-1 0  9993
2 02789  32.2792  39.5416 0061046 192.7886 167.1222 14.92607720988261
Epoch: 2024-10-11T13:36Z
Definitive object data (Epoch: 2024-10-11T13:36:08.311Z)
Latitude-0.00003°
Longitude174.87182°
Altitude629.923 km
Speed7.523 km/s
True Right ascension02h 38m 09s
True Declination0° 00' 00"
Sunlit
Object was in full shadow at TLE epoch
Predictive object data (real-time)
Latitude-7.07883°
Longitude160.71193°
Altitude625.844 km
Speed7.528 km/s
Apparent Right ascension03h 51m 38s
Apparent Declination-28° 38' 05"
Sunlit
Object is in full shadow
Predictive observer data (real-time)
Local Sidereal Time19:10:33
Azimuth90.301° ESE
Elevation-47.957°
Doppler factor1
Orbital elements
Apogee635.989 km
Perigee550.872 km
Semi-major axis6,971.568 km
Eccentricity0.0061046
Inclination32.2792°
RAAN39.5416°
Arg. of periapsis192.7886°
True anomaly167.27696°
Mean anomaly167.1222°
Eccentric anomaly167.19969°
Mean motion3.72861 °/min
BSTAR0.011118
Period96.55 mins
No data available

TITAN 3C TRANSTAGE DEB Visibility forecast

Observer location: 39.9160978°, -105.1181434

Span
Click to sort rows by Start time (UTC) header in descending order
Start Az.
Max El. time (UTC)
Max El. Az.
Max El.
End time (UTC)
End Az.
6 mins2024-10-12 12:21:39.361Z212.962° SW2024-10-12 12:24:39.361Z159.16° S22.722°2024-10-12 12:27:39.361Z115.376° SE
6 mins2024-10-12 14:03:39.361Z228.325° WSW2024-10-12 14:05:39.361Z188.455° SSW26.512°2024-10-12 14:09:39.361Z122.476° SE
4 mins2024-10-12 15:45:39.361Z227.003° WSW2024-10-12 15:47:39.361Z192.737° SSW18.172°2024-10-12 15:49:39.361Z160.915° S